MAS8000 WMKK-OEJN

Flight info

Callsign MAS8000
Flight time N/A
Altitude 36000
Route PUGER1A PUGER R461 ISVUR P756 MABIX P570 TVM UL425 DONSA UM551 ANGAL M551 KIVEL B549 THAMD P323 WDR Z331 VEMEM
Aircraft A359/H-SDE2E3GHIJ3J4J5LM1ORWXY/LB1D1

Departure

Time 2026-05-06 03:40
Airport Kuala Lumpur International Airport (WMKK)

Arrival

Time N/A
Airport King Abdulaziz International Airport (OEJN)
Time Latitude Longitude Altitude Speed Heading
2026-05-06 02:39 2.74518 101.71459 79 ft 0 kts 56°
2026-05-06 03:24 2.74504 101.71438 84 ft 4 kts 56°
2026-05-06 03:24 2.74495 101.71423 84 ft 4 kts 65°
2026-05-06 03:25 2.74490 101.71399 80 ft 4 kts 113°
2026-05-06 03:25 2.74506 101.71380 84 ft 3 kts 146°
2026-05-06 03:25 2.74509 101.71378 82 ft 0 kts 146°
2026-05-06 03:29 2.74492 101.71389 79 ft 7 kts 146°
2026-05-06 03:29 2.74443 101.71422 84 ft 10 kts 146°
2026-05-06 03:30 2.74383 101.71467 81 ft 11 kts 128°
2026-05-06 03:30 2.74394 101.71537 81 ft 11 kts 54°
2026-05-06 03:30 2.74445 101.71608 84 ft 13 kts 54°
2026-05-06 03:30 2.74503 101.71690 85 ft 15 kts 58°
2026-05-06 03:31 2.74563 101.71785 79 ft 17 kts 57°
2026-05-06 03:31 2.74631 101.71889 85 ft 18 kts 57°
2026-05-06 03:31 2.74689 101.71947 86 ft 10 kts 11°
2026-05-06 03:31 2.74748 101.71923 88 ft 10 kts 328°
2026-05-06 03:32 2.74814 101.71879 88 ft 15 kts 326°
2026-05-06 03:32 2.74905 101.71818 84 ft 17 kts 325°
2026-05-06 03:32 2.75007 101.71748 84 ft 20 kts 327°
2026-05-06 03:32 2.75130 101.71668 92 ft 21 kts 326°
2026-05-06 03:33 2.75256 101.71584 70 ft 23 kts 326°
2026-05-06 03:33 2.75395 101.71492 74 ft 24 kts 326°
2026-05-06 03:33 2.75537 101.71398 71 ft 25 kts 326°
2026-05-06 03:33 2.75681 101.71299 67 ft 25 kts 325°
2026-05-06 03:34 2.75820 101.71204 72 ft 26 kts 326°
2026-05-06 03:34 2.75973 101.71101 68 ft 27 kts 326°
2026-05-06 03:34 2.76110 101.71045 68 ft 19 kts 351°
2026-05-06 03:34 2.76248 101.71019 73 ft 22 kts 340°
2026-05-06 03:35 2.76382 101.70941 63 ft 23 kts 325°
2026-05-06 03:35 2.76516 101.70849 65 ft 24 kts 326°
2026-05-06 03:35 2.76659 101.70753 62 ft 25 kts 326°
2026-05-06 03:35 2.76803 101.70658 69 ft 25 kts 326°
2026-05-06 03:36 2.76952 101.70558 64 ft 26 kts 327°
2026-05-06 03:36 2.77097 101.70462 61 ft 27 kts 326°
2026-05-06 03:36 2.77258 101.70353 60 ft 28 kts 326°
2026-05-06 03:36 2.77424 101.70241 60 ft 29 kts 326°
2026-05-06 03:37 2.77592 101.70129 60 ft 24 kts 327°
2026-05-06 03:37 2.77677 101.70076 70 ft 14 kts 330°
2026-05-06 03:37 2.77763 101.70087 68 ft 13 kts 45°
2026-05-06 03:37 2.77810 101.70169 68 ft 14 kts 82°
2026-05-06 03:38 2.77758 101.70248 60 ft 15 kts 147°
2026-05-06 03:38 2.77715 101.70276 62 ft 0 kts 146°
2026-05-06 03:39 2.77575 101.70370 62 ft 56 kts 146°
2026-05-06 03:39 2.77077 101.70704 73 ft 115 kts 146°
2026-05-06 03:39 2.76266 101.71249 67 ft 164 kts 146°
2026-05-06 03:40 2.75248 101.71944 419 ft 180 kts 146°
2026-05-06 03:40 2.74227 101.72653 1107 ft 175 kts 146°
2026-05-06 03:40 2.73199 101.73335 1575 ft 181 kts 146°
2026-05-06 03:40 2.72239 101.74223 1726 ft 197 kts 124°
2026-05-06 03:41 2.71538 101.75451 1920 ft 213 kts 116°
2026-05-06 03:41 2.70847 101.76839 2094 ft 231 kts 116°
2026-05-06 03:41 2.70100 101.78330 2335 ft 248 kts 116°
2026-05-06 03:41 2.69302 101.79901 2694 ft 258 kts 117°
2026-05-06 03:42 2.68483 101.81510 3203 ft 262 kts 117°
2026-05-06 03:42 2.67651 101.83150 3752 ft 266 kts 116°
2026-05-06 03:42 2.66813 101.84808 4327 ft 268 kts 117°
2026-05-06 03:42 2.65970 101.86442 4883 ft 271 kts 117°
2026-05-06 03:43 2.65290 101.87987 5312 ft 273 kts 107°
2026-05-06 03:43 2.65223 101.89873 5765 ft 276 kts 76°
2026-05-06 03:43 2.66077 101.91584 6255 ft 279 kts 49°
2026-05-06 03:43 2.67462 101.92796 6722 ft 280 kts 36°
2026-05-06 03:44 2.68995 101.93896 7205 ft 283 kts 36°
2026-05-06 03:44 2.70682 101.94936 7671 ft 286 kts 23°
2026-05-06 03:44 2.72624 101.95302 8121 ft 288 kts 356°
2026-05-06 03:44 2.74549 101.94750 8578 ft 290 kts 332°
2026-05-06 03:45 2.76301 101.93722 9068 ft 294 kts 328°
2026-05-06 03:45 2.78043 101.92645 9558 ft 295 kts 329°
2026-05-06 03:45 2.79818 101.91580 10038 ft 299 kts 329°
2026-05-06 03:45 2.81624 101.90502 10345 ft 308 kts 329°
2026-05-06 03:46 2.83507 101.89378 10552 ft 322 kts 329°
2026-05-06 03:46 2.85464 101.88211 10780 ft 332 kts 329°
2026-05-06 03:46 2.87478 101.87005 10979 ft 342 kts 329°
2026-05-06 03:46 2.89548 101.85766 11180 ft 352 kts 329°
2026-05-06 03:47 2.91677 101.84494 11418 ft 360 kts 329°
2026-05-06 03:47 2.93838 101.83204 11749 ft 364 kts 329°
2026-05-06 03:47 2.96021 101.81901 12115 ft 367 kts 329°
2026-05-06 03:47 2.98218 101.80591 12489 ft 370 kts 330°
2026-05-06 03:48 3.00435 101.79270 12867 ft 372 kts 330°
2026-05-06 03:48 3.02665 101.77940 13235 ft 374 kts 330°
2026-05-06 03:48 3.04888 101.76592 13582 ft 376 kts 328°
2026-05-06 03:48 3.06955 101.74972 13930 ft 379 kts 316°
2026-05-06 03:49 3.08624 101.72923 14273 ft 382 kts 302°
2026-05-06 03:49 3.09786 101.70541 14581 ft 384 kts 289°
2026-05-06 03:49 3.10429 101.68001 14908 ft 386 kts 281°
2026-05-06 03:49 3.10907 101.65361 15243 ft 388 kts 280°
2026-05-06 03:50 3.11383 101.62723 15572 ft 391 kts 280°
2026-05-06 03:50 3.11869 101.60074 15886 ft 393 kts 281°
2026-05-06 03:50 3.12360 101.57417 16224 ft 395 kts 281°
2026-05-06 03:50 3.12857 101.54723 16549 ft 397 kts 281°
2026-05-06 03:51 3.13367 101.51970 16851 ft 399 kts 281°
2026-05-06 03:51 3.13869 101.49267 17173 ft 401 kts 281°
2026-05-06 03:51 3.14380 101.46515 17476 ft 403 kts 281°
2026-05-06 03:51 3.14899 101.43720 17795 ft 405 kts 281°
2026-05-06 03:52 3.15409 101.40976 18079 ft 407 kts 281°
2026-05-06 03:52 3.15934 101.38152 18379 ft 409 kts 281°
2026-05-06 03:52 3.16455 101.35345 18663 ft 411 kts 281°
2026-05-06 03:52 3.16980 101.32520 18939 ft 413 kts 281°
2026-05-06 03:53 3.17499 101.29727 19216 ft 415 kts 281°
2026-05-06 03:53 3.18033 101.26849 19513 ft 416 kts 281°
2026-05-06 03:53 3.18555 101.24034 19779 ft 418 kts 281°
2026-05-06 03:53 3.19085 101.21182 20039 ft 420 kts 281°
2026-05-06 03:54 3.19619 101.18301 20312 ft 421 kts 281°
2026-05-06 03:54 3.20162 101.15377 20560 ft 423 kts 281°
2026-05-06 03:54 3.20694 101.12510 20791 ft 425 kts 281°
2026-05-06 03:54 3.21233 101.09601 21043 ft 427 kts 281°
2026-05-06 03:55 3.21775 101.06677 21305 ft 428 kts 281°
2026-05-06 03:55 3.22318 101.03748 21544 ft 429 kts 281°
2026-05-06 03:55 3.22864 101.00806 21773 ft 431 kts 281°
2026-05-06 03:55 3.23411 100.97850 22006 ft 432 kts 281°
2026-05-06 03:56 3.24046 100.94871 22211 ft 434 kts 284°
2026-05-06 03:56 3.24773 100.91972 22441 ft 436 kts 284°
2026-05-06 03:56 3.25513 100.89026 22660 ft 437 kts 284°
2026-05-06 03:56 3.26242 100.86075 22852 ft 438 kts 284°
2026-05-06 03:57 3.26968 100.83104 23055 ft 440 kts 284°
2026-05-06 03:57 3.27691 100.80133 23250 ft 441 kts 284°
2026-05-06 03:57 3.28415 100.77143 23471 ft 442 kts 283°
2026-05-06 03:57 3.29140 100.74142 23661 ft 444 kts 283°
2026-05-06 03:58 3.29864 100.71146 23843 ft 445 kts 283°
2026-05-06 03:58 3.30593 100.68129 24028 ft 446 kts 283°
2026-05-06 03:58 3.31321 100.65113 24217 ft 448 kts 283°
2026-05-06 03:58 3.32053 100.62077 24399 ft 449 kts 283°
2026-05-06 03:59 3.32788 100.59032 24566 ft 450 kts 283°
2026-05-06 03:59 3.33521 100.55991 24759 ft 451 kts 283°
2026-05-06 03:59 3.34259 100.52931 24927 ft 452 kts 283°
2026-05-06 03:59 3.34998 100.49863 25098 ft 453 kts 283°
2026-05-06 04:00 3.35737 100.46797 25269 ft 455 kts 283°
2026-05-06 04:00 3.36480 100.43714 25442 ft 456 kts 283°
2026-05-06 04:00 3.37221 100.40636 25608 ft 457 kts 283°
2026-05-06 04:00 3.37967 100.37539 25783 ft 458 kts 283°
2026-05-06 04:01 3.38715 100.34434 25943 ft 459 kts 283°
2026-05-06 04:01 3.39460 100.31333 26106 ft 460 kts 283°
2026-05-06 04:01 3.40016 100.28174 26263 ft 461 kts 276°
2026-05-06 04:01 3.40323 100.24986 26417 ft 462 kts 274°
2026-05-06 04:02 3.40543 100.21772 26603 ft 463 kts 273°
2026-05-06 04:02 3.40724 100.18559 26760 ft 464 kts 273°
2026-05-06 04:02 3.40898 100.15322 26923 ft 465 kts 273°
2026-05-06 04:02 3.41077 100.12083 27089 ft 466 kts 273°
2026-05-06 04:03 3.41264 100.08848 27254 ft 467 kts 273°
2026-05-06 04:03 3.41460 100.05596 27411 ft 468 kts 273°
2026-05-06 04:03 3.41660 100.02349 27575 ft 469 kts 273°
2026-05-06 04:03 3.41864 99.99084 27727 ft 470 kts 273°
2026-05-06 04:04 3.42071 99.95812 27889 ft 471 kts 273°
2026-05-06 04:04 3.42277 99.92544 28054 ft 472 kts 273°
2026-05-06 04:04 3.42482 99.89297 28212 ft 473 kts 273°
2026-05-06 04:04 3.42690 99.86005 28379 ft 474 kts 273°
2026-05-06 04:05 3.42896 99.82714 28535 ft 475 kts 273°
2026-05-06 04:05 3.43102 99.79409 28697 ft 476 kts 273°
2026-05-06 04:05 3.43309 99.76101 28853 ft 477 kts 273°
2026-05-06 04:05 3.43516 99.72778 29023 ft 479 kts 273°
2026-05-06 04:06 3.43724 99.69459 29204 ft 479 kts 273°
2026-05-06 04:06 3.43932 99.66121 29360 ft 480 kts 273°
2026-05-06 04:06 3.44141 99.62780 29515 ft 481 kts 273°
2026-05-06 04:06 3.44350 99.59439 29669 ft 482 kts 273°
2026-05-06 04:07 3.44559 99.56082 29819 ft 483 kts 273°
2026-05-06 04:07 3.44769 99.52716 29987 ft 485 kts 273°
2026-05-06 04:07 3.44979 99.49354 30144 ft 486 kts 273°
2026-05-06 04:07 3.45190 99.45971 30302 ft 487 kts 273°
2026-05-06 04:08 3.45401 99.42583 30475 ft 488 kts 273°
2026-05-06 04:08 3.45540 99.40352 30600 ft 488 kts 273°
2026-05-06 04:08 3.45750 99.36957 30761 ft 489 kts 273°
2026-05-06 04:08 3.45961 99.33552 30916 ft 490 kts 273°
2026-05-06 04:09 3.46173 99.30141 31094 ft 491 kts 273°
2026-05-06 04:09 3.46384 99.26734 31253 ft 492 kts 273°
2026-05-06 04:09 3.46597 99.23306 31404 ft 493 kts 273°
2026-05-06 04:09 3.46810 99.19871 31571 ft 494 kts 273°
2026-05-06 04:10 3.47022 99.16446 31711 ft 495 kts 273°
2026-05-06 04:10 3.47234 99.13007 31858 ft 496 kts 273°
2026-05-06 04:10 3.47447 99.09553 31992 ft 497 kts 273°
2026-05-06 04:10 3.47661 99.06097 32135 ft 498 kts 273°
2026-05-06 04:11 3.47874 99.02643 32290 ft 499 kts 273°
2026-05-06 04:11 3.48088 98.99171 32425 ft 500 kts 273°
2026-05-06 04:11 3.48302 98.95704 32558 ft 501 kts 273°
2026-05-06 04:11 3.48517 98.92219 32674 ft 501 kts 273°
2026-05-06 04:12 3.48732 98.88730 32808 ft 502 kts 273°
2026-05-06 04:12 3.48947 98.85250 32924 ft 503 kts 273°
2026-05-06 04:12 3.49163 98.81737 33032 ft 504 kts 273°
2026-05-06 04:12 3.49378 98.78238 33138 ft 505 kts 273°
2026-05-06 04:13 3.49594 98.74727 33243 ft 506 kts 274°
2026-05-06 04:13 3.49809 98.71221 33372 ft 506 kts 274°
2026-05-06 04:13 3.50025 98.67694 33506 ft 506 kts 273°
2026-05-06 04:13 3.50239 98.64185 33662 ft 506 kts 274°
2026-05-06 04:14 3.50354 98.60664 33833 ft 506 kts 268°
2026-05-06 04:14 3.50217 98.57154 34013 ft 505 kts 267°
2026-05-06 04:14 3.50029 98.53642 34192 ft 504 kts 266°
2026-05-06 04:14 3.49816 98.50142 34350 ft 504 kts 266°
2026-05-06 04:15 3.49590 98.46632 34512 ft 504 kts 266°
2026-05-06 04:15 3.49363 98.43135 34695 ft 504 kts 266°
2026-05-06 04:15 3.49137 98.39645 34875 ft 503 kts 266°
2026-05-06 04:15 3.48912 98.36144 35064 ft 503 kts 266°
2026-05-06 04:16 3.48691 98.32653 35230 ft 503 kts 266°
2026-05-06 04:16 3.48475 98.29211 35405 ft 502 kts 266°
2026-05-06 04:16 3.48258 98.25733 35599 ft 502 kts 266°
2026-05-06 04:16 3.48040 98.22246 35788 ft 501 kts 266°
2026-05-06 04:17 3.47607 98.15316 35893 ft 495 kts 266°
2026-05-06 04:17 3.47178 98.08463 35888 ft 493 kts 266°
2026-05-06 04:18 3.46749 98.01613 35888 ft 493 kts 266°
2026-05-06 04:18 3.46318 97.94764 35889 ft 494 kts 266°
2026-05-06 04:19 3.45886 97.87902 35888 ft 494 kts 266°
2026-05-06 04:19 3.45455 97.81045 35889 ft 494 kts 266°
2026-05-06 04:20 3.45023 97.74183 35887 ft 494 kts 266°
2026-05-06 04:20 3.44587 97.67322 35887 ft 494 kts 266°
2026-05-06 04:21 3.44153 97.60453 35887 ft 494 kts 266°
2026-05-06 04:21 3.43729 97.53594 35887 ft 494 kts 266°
2026-05-06 04:22 3.43298 97.46729 35887 ft 494 kts 266°
2026-05-06 04:23 3.42656 97.36443 35887 ft 494 kts 266°
2026-05-06 04:23 3.42230 97.29622 35889 ft 494 kts 266°
2026-05-06 04:24 3.41801 97.22766 35887 ft 494 kts 266°
2026-05-06 04:24 3.41371 97.15910 35887 ft 494 kts 266°
2026-05-06 04:25 3.40941 97.09045 35888 ft 494 kts 266°
2026-05-06 04:25 3.40510 97.02187 35888 ft 494 kts 266°
2026-05-06 04:26 3.40079 96.95339 35888 ft 494 kts 266°
2026-05-06 04:26 3.39647 96.88475 35889 ft 494 kts 266°
2026-05-06 04:27 3.39215 96.81613 35888 ft 494 kts 266°
2026-05-06 04:27 3.38781 96.74754 35887 ft 494 kts 266°
2026-05-06 04:28 3.38347 96.67893 35889 ft 494 kts 266°
2026-05-06 04:28 3.37913 96.61021 35888 ft 494 kts 266°
2026-05-06 04:29 3.37480 96.54161 35888 ft 494 kts 266°
2026-05-06 04:29 3.37044 96.47295 35890 ft 495 kts 266°
2026-05-06 04:30 3.36610 96.40428 35887 ft 495 kts 266°
2026-05-06 04:30 3.36175 96.33561 35889 ft 495 kts 266°
2026-05-06 04:31 3.35739 96.26731 35887 ft 494 kts 266°
2026-05-06 04:31 3.35302 96.19867 35888 ft 494 kts 266°
2026-05-06 04:32 3.34865 96.13008 35888 ft 494 kts 266°
2026-05-06 04:32 3.34426 96.06132 35888 ft 495 kts 266°
2026-05-06 04:33 3.33987 95.99263 35887 ft 494 kts 266°
2026-05-06 04:33 3.33552 95.92405 35887 ft 494 kts 266°
2026-05-06 04:34 3.33111 95.85542 35890 ft 495 kts 266°
2026-05-06 04:34 3.32670 95.78671 35889 ft 494 kts 266°
2026-05-06 04:35 3.32228 95.71812 35886 ft 494 kts 266°
2026-05-06 04:35 3.31787 95.64949 35888 ft 495 kts 266°
2026-05-06 04:36 3.31348 95.58086 35887 ft 494 kts 266°
2026-05-06 04:36 3.30907 95.51219 35889 ft 494 kts 266°
2026-05-06 04:37 3.30463 95.44355 35889 ft 494 kts 266°
2026-05-06 04:37 3.30021 95.37497 35882 ft 494 kts 266°
2026-05-06 04:38 3.29579 95.30639 35880 ft 494 kts 266°
2026-05-06 04:38 3.29136 95.23783 35869 ft 494 kts 266°
2026-05-06 04:39 3.28691 95.16915 35881 ft 494 kts 266°
2026-05-06 04:39 3.28245 95.10057 35880 ft 494 kts 266°
2026-05-06 04:40 3.27802 95.03202 35881 ft 494 kts 266°
2026-05-06 04:40 3.27357 94.96337 35880 ft 494 kts 266°
2026-05-06 04:41 3.26911 94.89478 35879 ft 494 kts 266°
2026-05-06 04:41 3.27287 94.82647 35881 ft 493 kts 282°
2026-05-06 04:42 3.28879 94.75973 35881 ft 493 kts 284°
2026-05-06 04:42 3.30644 94.69333 35882 ft 494 kts 285°
2026-05-06 04:43 3.32416 94.62694 35879 ft 494 kts 285°
2026-05-06 04:43 3.34166 94.56049 35882 ft 494 kts 285°
2026-05-06 04:44 3.35909 94.49392 35861 ft 494 kts 284°
2026-05-06 04:44 3.37635 94.42794 35879 ft 494 kts 285°
2026-05-06 04:45 3.39376 94.36144 35872 ft 494 kts 284°
2026-05-06 04:45 3.41114 94.29498 35881 ft 494 kts 284°
2026-05-06 04:46 3.42854 94.22841 35873 ft 494 kts 284°
2026-05-06 04:46 3.44592 94.16199 35879 ft 494 kts 284°
2026-05-06 04:47 3.46328 94.09552 35880 ft 494 kts 284°
2026-05-06 04:47 3.48064 94.02908 35879 ft 494 kts 284°
2026-05-06 04:48 3.49799 93.96265 35878 ft 493 kts 284°
2026-05-06 04:48 3.51536 93.89610 35879 ft 494 kts 284°
2026-05-06 04:49 3.53271 93.82963 35881 ft 494 kts 284°
2026-05-06 04:49 3.55006 93.76318 35880 ft 494 kts 284°
2026-05-06 04:50 3.56741 93.69674 35880 ft 493 kts 284°
2026-05-06 04:50 3.58474 93.63024 35880 ft 493 kts 284°